Total_Precipitation_Accumulation
0.72 0.79 0.84 0.83 0.74 0.80 0.80 0.79 0.79 0.81 0.72 0.73 0.73 0.74 0.73 0.74 0.78 0.82 0.82 0.87 0.94 1.03 1.05 1.02 1.00 1.01 1.01 0.96 1.00 0.99 0.92 1.01 1.03 0.85 0.94 1.01 0.91 0.76 0.66 0.62 0.61 0.66 0.63
0.70 0.80 0.86 0.91 0.82 0.80 0.81 0.83 0.85 0.91 0.96 0.93 0.87 0.86 0.81 0.84 0.93 0.95 0.97 0.94 0.93 0.96 1.13 1.33 1.32 1.30 1.21 1.08 1.14 1.09 1.04 1.19 1.14 1.04 1.13 1.17 1.12 0.93 0.81 0.71 0.58 0.58 0.62
0.75 0.78 0.85 0.88 0.84 0.82 0.92 0.99 0.97 1.05 1.12 1.13 1.09 0.99 0.89 0.87 0.88 0.92 0.99 1.00 1.01 1.10 1.24 1.36 1.45 1.55 1.41 1.28 1.23 1.20 1.22 1.29 1.30 1.20 1.21 1.34 1.33 1.12 0.93 0.72 0.55 0.58 0.53
0.71 0.77 0.82 0.85 0.88 0.91 0.97 1.04 1.05 1.09 1.13 1.17 1.17 1.14 1.08 0.96 0.88 0.89 0.92 0.96 1.11 1.28 1.34 1.27 1.35 1.59 1.64 1.55 1.40 1.31 1.31 1.36 1.36 1.35 1.36 1.47 1.50 1.42 1.21 0.93 0.74 0.65 0.55
0.83 0.93 0.99 1.07 1.14 1.17 1.21 1.20 1.17 1.19 1.20 1.27 1.33 1.31 1.23 1.10 0.93 0.94 1.01 0.97 1.09 1.17 1.16 1.09 1.07 1.23 1.44 1.55 1.43 1.37 1.37 1.36 1.38 1.44 1.49 1.54 1.56 1.61 1.46 1.17 0.97 0.85 0.69
0.96 1.09 1.18 1.31 1.40 1.49 1.62 1.72 1.63 1.53 1.58 1.65 1.60 1.50 1.39 1.08 1.03 1.00 0.98 1.00 1.06 1.06 1.05 1.02 0.92 0.86 0.93 1.11 1.27 1.39 1.46 1.39 1.33 1.42 1.53 1.55 1.55 1.54 1.51 1.34 1.10 0.91 0.76
1.09 1.28 1.39 1.53 1.67 1.81 1.91 1.95 1.90 1.93 1.99 2.01 1.91 1.73 1.59 1.47 1.30 1.10 1.00 0.97 0.97 0.97 1.00 0.99 0.82 0.74 0.83 0.85 0.99 1.10 1.21 1.27 1.25 1.31 1.37 1.45 1.54 1.64 1.63 1.43 1.24 1.07 0.86
1.33 1.49 1.65 1.67 1.71 1.79 1.87 1.83 1.84 1.96 2.03 2.02 1.92 1.79 1.70 1.60 1.44 1.19 1.09 0.93 0.95 0.98 1.01 1.01 0.96 0.90 0.87 0.91 0.94 0.94 0.94 1.00 1.05 1.06 1.15 1.30 1.48 1.64 1.76 1.64 1.49 1.21 1.01
1.34 1.43 1.49 1.60 1.71 1.75 1.77 1.79 1.83 1.86 1.78 1.68 1.63 1.65 1.64 1.67 1.53 1.25 1.14 1.04 1.12 1.13 1.12 1.10 1.09 1.03 1.06 0.90 0.85 0.88 0.89 0.91 0.94 0.98 1.01 1.15 1.39 1.57 1.63 1.63 1.51 1.31 1.08
1.33 1.36 1.37 1.49 1.61 1.69 1.73 1.77 1.73 1.69 1.64 1.59 1.53 1.55 1.57 1.58 1.52 1.21 1.11 1.07 1.17 1.19 1.22 1.20 1.14 1.01 0.96 0.82 0.78 0.85 0.84 0.85 0.89 0.91 0.92 0.93 1.00 1.26 1.51 1.36 1.28 1.23 1.08
1.17 1.24 1.31 1.46 1.57 1.62 1.69 1.69 1.67 1.63 1.65 1.65 1.59 1.50 1.47 1.47 1.45 1.17 1.04 0.97 1.10 1.22 1.21 1.16 1.13 1.03 0.81 0.73 0.70 0.74 0.77 0.80 0.90 0.92 0.89 0.90 0.96 1.06 1.23 1.25 1.17 1.09 1.03
0.96 1.03 1.06 1.17 1.31 1.37 1.47 1.47 1.50 1.47 1.44 1.42 1.39 1.31 1.28 1.29 1.23 1.11 0.92 0.83 0.90 1.05 1.14 1.17 1.19 1.03 0.78 0.66 0.56 0.53 0.50 0.48 0.59 0.71 0.77 0.79 0.82 0.91 1.02 1.15 1.17 1.13 1.01
0.80 0.81 0.84 0.92 1.09 1.25 1.30 1.28 1.30 1.29 1.27 1.24 1.22 1.18 1.15 1.13 1.07 0.87 0.73 0.63 0.67 0.80 0.98 1.11 1.04 0.87 0.72 0.59 0.51 0.46 0.43 0.41 0.50 0.60 0.67 0.70 0.70 0.77 1.00 1.26 1.39 1.41 1.30
0.83 0.84 0.86 0.92 1.02 1.26 1.38 1.30 1.23 1.21 1.18 1.17 1.13 1.13 1.15 1.18 1.12 0.92 0.71 0.56 0.60 0.73 0.84 0.89 0.90 0.89 0.85 0.78 0.67 0.56 0.47 0.48 0.53 0.60 0.71 0.81 0.89 0.95 1.05 1.20 1.38 1.42 1.39
0.73 0.71 0.72 0.79 0.92 1.12 1.27 1.26 1.12 1.09 1.10 1.12 1.10 1.08 1.03 1.00 0.98 0.86 0.72 0.69 0.73 0.81 0.81 0.88 0.90 0.97 1.02 1.02 0.96 0.86 0.79 0.76 0.71 0.70 0.82 0.94 0.98 1.01 1.04 1.14 1.28 1.31 1.21
0.77 0.72 0.70 0.72 0.82 1.01 1.21 1.28 1.12 0.93 0.92 0.91 0.86 0.82 0.79 0.72 0.67 0.64 0.61 0.59 0.64 0.69 0.67 0.83 0.96 1.06 1.13 1.16 1.16 1.08 0.99 0.90 0.83 0.84 0.90 0.98 1.02 1.03 1.05 1.15 1.26 1.26 1.14
0.80 0.75 0.72 0.71 0.75 0.86 1.09 1.32 1.36 1.10 0.88 0.79 0.67 0.57 0.54 0.50 0.50 0.53 0.57 0.53 0.51 0.51 0.51 0.68 0.85 0.97 1.09 1.14 1.15 1.08 1.03 0.97 0.95 0.96 1.01 1.04 1.07 1.08 1.09 1.11 1.19 1.23 1.15
0.78 0.74 0.67 0.63 0.63 0.72 0.94 1.21 1.38 1.33 1.16 0.91 0.64 0.47 0.43 0.39 0.40 0.49 0.55 0.51 0.48 0.44 0.45 0.57 0.71 0.84 0.98 1.11 1.17 1.14 1.10 1.08 1.01 0.98 1.05 1.07 1.10 1.13 1.11 1.07 1.11 1.19 1.17
0.71 0.70 0.64 0.61 0.62 0.66 0.83 1.09 1.28 1.35 1.28 1.16 0.87 0.55 0.43 0.39 0.41 0.49 0.51 0.52 0.54 0.50 0.49 0.54 0.60 0.71 0.88 1.04 1.14 1.19 1.19 1.12 1.02 1.01 1.04 1.08 1.09 1.13 1.11 1.05 1.10 1.20 1.21
0.58 0.55 0.47 0.46 0.50 0.53 0.63 0.85 1.09 1.22 1.16 1.11 0.94 0.58 0.36 0.33 0.42 0.57 0.64 0.70 0.70 0.62 0.58 0.59 0.61 0.70 0.84 1.02 1.12 1.16 1.21 1.15 1.09 1.07 1.05 1.10 1.12 1.13 1.12 1.08 1.08 1.15 1.12
0.52 0.46 0.36 0.32 0.39 0.44 0.49 0.67 0.92 1.09 1.05 0.96 0.84 0.53 0.34 0.37 0.52 0.64 0.77 0.81 0.80 0.73 0.69 0.65 0.64 0.70 0.82 0.96 1.05 1.09 1.15 1.13 1.08 1.07 1.06 1.09 1.13 1.14 1.19 1.19 1.13 1.14 1.15
0.40 0.40 0.37 0.37 0.41 0.43 0.47 0.64 0.87 1.02 0.98 0.92 0.82 0.59 0.43 0.49 0.59 0.69 0.74 0.73 0.70 0.64 0.62 0.66 0.69 0.73 0.80 0.87 0.95 1.05 1.10 1.11 1.10 1.08 1.09 1.11 1.15 1.15 1.19 1.21 1.17 1.14 1.15
0.30 0.31 0.30 0.32 0.36 0.35 0.46 0.64 0.79 0.87 0.84 0.80 0.70 0.58 0.55 0.58 0.60 0.64 0.67 0.67 0.66 0.63 0.62 0.67 0.74 0.77 0.83 0.86 0.90 0.98 1.02 1.01 1.01 1.02 1.08 1.11 1.13 1.13 1.14 1.14 1.11 1.12 1.09
0.27 0.30 0.31 0.33 0.34 0.42 0.52 0.65 0.71 0.70 0.68 0.66 0.62 0.62 0.64 0.65 0.61 0.59 0.63 0.66 0.69 0.70 0.70 0.69 0.71 0.71 0.74 0.77 0.80 0.82 0.86 0.83 0.80 0.83 0.89 0.97 1.01 1.03 1.05 1.08 1.09 1.09 1.08
0.23 0.28 0.33 0.39 0.42 0.48 0.57 0.65 0.66 0.65 0.60 0.57 0.57 0.60 0.61 0.58 0.60 0.63 0.67 0.70 0.71 0.69 0.65 0.65 0.66 0.65 0.63 0.62 0.62 0.64 0.67 0.62 0.55 0.59 0.67 0.81 0.89 0.93 0.94 0.99 1.04 1.06 1.08
0.20 0.23 0.29 0.36 0.39 0.43 0.52 0.61 0.59 0.54 0.49 0.49 0.53 0.59 0.60 0.60 0.64 0.67 0.69 0.73 0.75 0.72 0.70 0.67 0.62 0.61 0.60 0.60 0.58 0.59 0.54 0.45 0.41 0.44 0.48 0.61 0.76 0.84 0.88 0.94 0.97 1.05 1.07